Weather History for Columbus, OH

Change the Weather History Date:

Thursday, September 5, 2013

  Actual Average Record
Temperature  
Mean Temperature 70 °F 71 °F  
Max Temperature 82 °F 81 °F 99 °F (1954)
Min Temperature 58 °F 61 °F 45 °F (1950)
Degree Days  
Heating Degree Days 0 1  
Month to date heating degree days 2 3  
Since 1 July heating degree days 6 3  
Cooling Degree Days 5 6  
Month to date cooling degree days 34 34  
Year to date cooling degree days 1035 923  
Growing Degree Days 21 (Base 50)    
Moisture  
Dew Point 56 °F    
Average Humidity 63    
Maximum Humidity 90    
Minimum Humidity 35    
Precipitation  
Precipitation 0.00 in 0.10 in 1.67 in (1915)
Month to date precipitation T 0.51  
Year to date precipitation 26.64 28.20  
Snow  
Snow 0.00 in 0.00 in 0.00 in ()
Month to date snowfall 0.0 0.0  
Since 1 July snowfall 0.0 0.0  
Since 1 September snowfall 0.0 0.0  
Snow Depth 0.00 in    
Sea Level Pressure  
Sea Level Pressure 30.15 in    
Wind  
Wind Speed 6 mph (North)    
Max Wind Speed 16 mph    
Max Gust Speed 24 mph    
Visibility 10 miles    
Events      
T = Trace of Precipitation, MM = Missing Value Source: NWS Daily Summary

Daily Weather History Graph

Daily Weather History Graph

Search for Another Location

Airport:

Trip Planner

Search our weather history database for the weather conditions in past years. The results will help you decide how hot, cold, wet, or windy it might be!

Date:

Astronomy

Sep. 05, 2013 Rise Set
Actual Time 7:03 AM EDT 7:56 PM EDT
Civil Twilight 6:35 AM EDT 8:23 PM EDT
Nautical Twilight 6:02 AM EDT 8:56 PM EDT
Astronomical Twilight 5:29 AM EDT 9:30 PM EDT
Moon 7:13 AM EDT (9/5) 7:47 PM EDT (9/5)
Length of Visible Light 13h 47m
Length of Day
12h 52m
New Moon, 0% of the Moon is Illuminated
Sep 5
New Moon
Sep 12
First Quarter
Sep 19
Full
Sep 26
Last Quarter
Oct 4
New

Hourly Weather History & Observations

Time (EDT) Temp. Heat Index Dew Point Humidity Pressure Visibility Wind Dir Wind Speed Gust Speed Precip Events Conditions
12:51 AM 64.9 °F - 59.0 °F 81% 30.10 in 10.0 mi Calm Calm - N/A   Clear
1:51 AM 63.0 °F - 59.0 °F 87% 30.11 in 10.0 mi Calm Calm - N/A   Clear
2:51 AM 62.1 °F - 59.0 °F 90% 30.11 in 10.0 mi Calm Calm - N/A   Clear
3:51 AM 62.1 °F - 59.0 °F 90% 30.12 in 10.0 mi South 3.5 mph - N/A   Clear
4:51 AM 61.0 °F - 57.9 °F 90% 30.12 in 10.0 mi Calm Calm - N/A   Clear
5:51 AM 60.1 °F - 57.9 °F 93% 30.12 in 10.0 mi Calm Calm - N/A   Clear
6:51 AM 60.1 °F - 57.0 °F 90% 30.14 in 10.0 mi Calm Calm - N/A   Partly Cloudy
7:51 AM 62.1 °F - 57.9 °F 86% 30.15 in 9.0 mi Calm Calm - N/A   Partly Cloudy
8:51 AM 66.9 °F - 57.9 °F 73% 30.17 in 10.0 mi NW 5.8 mph - N/A   Clear
9:51 AM 70.0 °F - 61.0 °F 73% 30.17 in 10.0 mi North 6.9 mph - N/A   Scattered Clouds
10:51 AM 73.0 °F - 62.1 °F 68% 30.17 in 10.0 mi Variable 4.6 mph - N/A   Partly Cloudy
11:51 AM 75.0 °F - 62.1 °F 64% 30.18 in 10.0 mi North 6.9 mph - N/A   Scattered Clouds
12:51 PM 77.0 °F - 62.1 °F 60% 30.18 in 10.0 mi NNW 9.2 mph - N/A   Scattered Clouds
1:51 PM 78.1 °F - 62.1 °F 58% 30.17 in 10.0 mi North 6.9 mph - N/A   Scattered Clouds
2:51 PM 80.1 °F 81.1 °F 61.0 °F 52% 30.15 in 10.0 mi WNW 10.4 mph - N/A   Mostly Cloudy
3:51 PM 81.0 °F 81.1 °F 57.9 °F 45% 30.14 in 10.0 mi North 13.8 mph - N/A   Scattered Clouds
4:51 PM 81.0 °F 80.4 °F 53.1 °F 38% 30.14 in 10.0 mi North 12.7 mph - N/A   Scattered Clouds
5:51 PM 80.1 °F - 50.0 °F 35% 30.14 in 10.0 mi North 11.5 mph - N/A   Scattered Clouds
6:51 PM 77.0 °F - 51.1 °F 40% 30.16 in 10.0 mi North 12.7 mph - N/A   Partly Cloudy
7:51 PM 71.1 °F - 46.0 °F 41% 30.16 in 10.0 mi North 10.4 mph - N/A   Partly Cloudy
8:51 PM 66.9 °F - 46.0 °F 47% 30.17 in 10.0 mi NNE 6.9 mph - N/A   Clear
9:51 PM 64.0 °F - 46.0 °F 52% 30.19 in 10.0 mi NNE 8.1 mph - N/A   Clear
10:51 PM 62.1 °F - 48.0 °F 60% 30.21 in 10.0 mi NNE 6.9 mph - N/A   Clear
11:51 PM 60.1 °F - 48.9 °F 67% 30.22 in 10.0 mi NNE 4.6 mph - N/A   Clear